When you browse on this site, cookies collect data to enhance your experience and personalize the content and advertising you see.
Visit our Privacy Policy to learn more. By continuing to use the site, you agree to this use of cookies and data.
  • Em Portugal
  • Lista de países
  • Para 7 dias
  • Temperatura da água
  • Mapas de satélite
  • Mapa do tempo
  • Widgets de tempo
  • user-avatar
    Iniciar Sessão

    Previsão horária em Kavarna

    Hoje, 22 Julho, Segunda-feira

    Tempo Temperatura Precipitação Vento Pressão Humidade
    00:00 +24°C° 0 mm 3 m/s 762 mmHg 60%
    01:00 +24°C° 0 mm 2 m/s 762 mmHg 54%
    02:00 +24°C° 0 mm 2 m/s 762 mmHg 49%
    03:00 +24°C° 0 mm 2 m/s 762 mmHg 49%
    04:00 +24°C° 0 mm 2 m/s 762 mmHg 49%
    05:00 +24°C° 0 mm 2 m/s 762 mmHg 49%
    06:00 +26°C° 0 mm 2 m/s 762 mmHg 46%
    07:00 +28°C° 0 mm 1 m/s 762 mmHg 43%
    08:00 +30°C° 0 mm 1 m/s 762 mmHg 41%
    09:00 +31°C° 0 mm 1 m/s 762 mmHg 39%
    10:00 +31°C° 0 mm 1 m/s 762 mmHg 37%
    11:00 +32°C° 0 mm 2 m/s 762 mmHg 35%
    12:00 +32°C° 0 mm 2 m/s 762 mmHg 35%
    13:00 +33°C° 0 mm 3 m/s 762 mmHg 35%
    14:00 +33°C° 0 mm 4 m/s 762 mmHg 36%
    15:00 +33°C° 0 mm 3 m/s 761 mmHg 37%
    16:00 +31°C° 0 mm 3 m/s 761 mmHg 38%
    17:00 +31°C° 0 mm 3 m/s 761 mmHg 40%
    18:00 +29°C° 0 mm 3 m/s 761 mmHg 45%
    19:00 +28°C° 0 mm 3 m/s 760 mmHg 51%
    20:00 +26°C° 0 mm 3 m/s 760 mmHg 56%
    21:00 +26°C° 0 mm 3 m/s 760 mmHg 56%
    22:00 +26°C° 0 mm 3 m/s 760 mmHg 56%
    23:00 +25°C° 0 mm 3 m/s 760 mmHg 56%

    Amanhã, 23 Julho, Terça-feira

    Tempo Temperatura Precipitação Vento Pressão Humidade
    00:00 +25°C° 0 mm 4 m/s 760 mmHg 62%
    01:00 +23°C° 0 mm 4 m/s 760 mmHg 68%
    02:00 +23°C° 0 mm 5 m/s 760 mmHg 73%
    03:00 +22°C° 0 mm 4 m/s 760 mmHg 76%
    04:00 +22°C° 0 mm 4 m/s 759 mmHg 78%
    05:00 +21°C° 0 mm 4 m/s 759 mmHg 80%
    06:00 +23°C° 0 mm 4 m/s 759 mmHg 76%
    07:00 +25°C° 0 mm 4 m/s 759 mmHg 73%
    08:00 +26°C° 0 mm 4 m/s 759 mmHg 69%
    09:00 +28°C° 0 mm 4 m/s 759 mmHg 64%
    10:00 +29°C° 0 mm 4 m/s 759 mmHg 58%
    11:00 +32°C° 0 mm 4 m/s 759 mmHg 53%
    12:00 +30°C° 0.3 mm 5 m/s 759 mmHg 54%
    13:00 +30°C° 0.3 mm 5 m/s 759 mmHg 55%
    14:00 +30°C° 0.3 mm 6 m/s 758 mmHg 57%
    15:00 +29°C° 1 mm 7 m/s 758 mmHg 59%
    16:00 +28°C° 1 mm 7 m/s 758 mmHg 62%
    17:00 +27°C° 1 mm 8 m/s 759 mmHg 64%
    18:00 +26°C° 0.4 mm 7 m/s 759 mmHg 68%
    19:00 +24°C° 0.4 mm 7 m/s 758 mmHg 71%
    20:00 +23°C° 0.4 mm 6 m/s 758 mmHg 74%
    21:00 +23°C° 0.2 mm 5 m/s 759 mmHg 76%
    22:00 +22°C° 0.2 mm 5 m/s 759 mmHg 78%
    23:00 +22°C° 0.2 mm 4 m/s 759 mmHg 80%

    Depois de amanhã, 24 Julho, Quarta-feira

    Tempo Temperatura Precipitação Vento Pressão Humidade
    00:00 +21°C° 0.2 mm 5 m/s 759 mmHg 77%
    01:00 +21°C° 0.2 mm 6 m/s 759 mmHg 74%
    02:00 +21°C° 0.2 mm 7 m/s 759 mmHg 72%
    03:00 +20°C° 0 mm 7 m/s 759 mmHg 73%
    04:00 +18°C° 0 mm 8 m/s 759 mmHg 75%
    05:00 +18°C° 0 mm 8 m/s 759 mmHg 76%
    06:00 +20°C° 0 mm 8 m/s 759 mmHg 69%
    07:00 +22°C° 0 mm 8 m/s 760 mmHg 61%
    08:00 +24°C° 0 mm 8 m/s 760 mmHg 53%
    09:00 +26°C° 0 mm 8 m/s 760 mmHg 47%
    10:00 +27°C° 0 mm 7 m/s 760 mmHg 42%
    11:00 +29°C° 0 mm 7 m/s 760 mmHg 36%
    12:00 +29°C° 0 mm 6 m/s 760 mmHg 35%
    13:00 +29°C° 0 mm 6 m/s 760 mmHg 35%
    14:00 +30°C° 0 mm 6 m/s 760 mmHg 35%
    15:00 +30°C° 0 mm 5 m/s 760 mmHg 37%
    16:00 +29°C° 0 mm 4 m/s 759 mmHg 39%
    17:00 +29°C° 0 mm 3 m/s 759 mmHg 41%
    18:00 +27°C° 0 mm 3 m/s 759 mmHg 47%
    19:00 +26°C° 0 mm 2 m/s 759 mmHg 53%
    20:00 +24°C° 0 mm 2 m/s 760 mmHg 60%
    21:00 +24°C° 0 mm 3 m/s 760 mmHg 61%
    22:00 +22°C° 0 mm 4 m/s 760 mmHg 62%
    23:00 +21°C° 0 mm 5 m/s 760 mmHg 64%

    25 Julho, Quinta-feira

    Tempo Temperatura Precipitação Vento Pressão Humidade
    00:00 +21°C° 0 mm 5 m/s 760 mmHg 65%
    01:00 +21°C° 0 mm 5 m/s 760 mmHg 67%
    02:00 +21°C° 0 mm 5 m/s 760 mmHg 68%
    03:00 +21°C° 0 mm 5 m/s 760 mmHg 69%
    04:00 +21°C° 0 mm 5 m/s 760 mmHg 70%
    05:00 +20°C° 0 mm 5 m/s 760 mmHg 71%
    06:00 +22°C° 0 mm 5 m/s 760 mmHg 67%
    07:00 +23°C° 0 mm 5 m/s 760 mmHg 62%
    08:00 +26°C° 0 mm 5 m/s 760 mmHg 57%
    09:00 +27°C° 0 mm 5 m/s 760 mmHg 52%
    10:00 +29°C° 0 mm 4 m/s 761 mmHg 47%
    11:00 +30°C° 0 mm 4 m/s 761 mmHg 41%
    12:00 +30°C° 0 mm 4 m/s 760 mmHg 41%
    13:00 +30°C° 0 mm 4 m/s 760 mmHg 42%
    14:00 +30°C° 0 mm 4 m/s 760 mmHg 42%
    15:00 +29°C° 0 mm 4 m/s 760 mmHg 47%
    16:00 +28°C° 0 mm 3 m/s 759 mmHg 52%
    17:00 +27°C° 0 mm 3 m/s 759 mmHg 57%
    18:00 +26°C° 0 mm 3 m/s 759 mmHg 60%
    19:00 +26°C° 0 mm 3 m/s 759 mmHg 64%
    20:00 +25°C° 0 mm 3 m/s 759 mmHg 67%
    21:00 +25°C° 0 mm 3 m/s 759 mmHg 62%
    22:00 +25°C° 0 mm 3 m/s 759 mmHg 57%
    23:00 +25°C° 0 mm 3 m/s 759 mmHg 52%

    26 Julho, Sexta-feira

    Tempo Temperatura Precipitação Vento Pressão Humidade
    00:00 +23°C° 0 mm 4 m/s 759 mmHg 54%
    01:00 +23°C° 0 mm 4 m/s 759 mmHg 57%
    02:00 +22°C° 0 mm 5 m/s 759 mmHg 59%
    03:00 +21°C° 0 mm 5 m/s 759 mmHg 61%
    04:00 +21°C° 0 mm 6 m/s 759 mmHg 62%
    05:00 +20°C° 0 mm 6 m/s 758 mmHg 64%
    06:00 +22°C° 0 mm 6 m/s 758 mmHg 61%
    07:00 +24°C° 0 mm 7 m/s 758 mmHg 58%
    08:00 +26°C° 0 mm 7 m/s 758 mmHg 55%
    09:00 +27°C° 0 mm 6 m/s 758 mmHg 53%
    10:00 +28°C° 0 mm 6 m/s 758 mmHg 51%
    11:00 +29°C° 0 mm 6 m/s 758 mmHg 49%
    12:00 +29°C° 0.1 mm 6 m/s 758 mmHg 47%
    13:00 +30°C° 0.1 mm 6 m/s 758 mmHg 46%
    14:00 +30°C° 0.1 mm 6 m/s 758 mmHg 44%
    15:00 +29°C° 0 mm 5 m/s 758 mmHg 47%
    16:00 +29°C° 0 mm 5 m/s 758 mmHg 49%
    17:00 +28°C° 0 mm 4 m/s 758 mmHg 52%
    18:00 +27°C° 0 mm 3 m/s 758 mmHg 55%
    19:00 +26°C° 0 mm 2 m/s 758 mmHg 59%
    20:00 +25°C° 0 mm 1 m/s 758 mmHg 63%
    21:00 +25°C° 0.1 mm 2 m/s 758 mmHg 64%
    22:00 +24°C° 0.1 mm 3 m/s 758 mmHg 65%
    23:00 +24°C° 0.1 mm 3 m/s 758 mmHg 67%

    27 Julho, Sábado

    Tempo Temperatura Precipitação Vento Pressão Humidade
    00:00 +22°C° 0 mm 4 m/s 758 mmHg 71%
    01:00 +21°C° 0 mm 5 m/s 758 mmHg 75%
    02:00 +21°C° 0 mm 5 m/s 757 mmHg 79%
    03:00 +20°C° 0 mm 5 m/s 757 mmHg 82%
    04:00 +20°C° 0 mm 6 m/s 757 mmHg 86%
    05:00 +20°C° 0 mm 6 m/s 757 mmHg 89%
    06:00 +21°C° 0 mm 6 m/s 757 mmHg 81%
    07:00 +23°C° 0 mm 6 m/s 757 mmHg 74%
    08:00 +26°C° 0 mm 6 m/s 757 mmHg 66%
    09:00 +27°C° 0 mm 6 m/s 757 mmHg 63%
    10:00 +28°C° 0 mm 6 m/s 757 mmHg 59%
    11:00 +29°C° 0 mm 6 m/s 758 mmHg 56%
    12:00 +29°C° 0 mm 6 m/s 757 mmHg 55%
    13:00 +29°C° 0 mm 6 m/s 757 mmHg 54%
    14:00 +29°C° 0 mm 5 m/s 757 mmHg 52%
    15:00 +29°C° 0 mm 5 m/s 756 mmHg 53%
    16:00 +29°C° 0 mm 4 m/s 756 mmHg 53%
    17:00 +29°C° 0 mm 4 m/s 756 mmHg 54%
    18:00 +27°C° 0 mm 3 m/s 756 mmHg 62%
    19:00 +25°C° 0 mm 3 m/s 756 mmHg 71%
    20:00 +24°C° 0 mm 2 m/s 756 mmHg 79%
    21:00 +23°C° 0 mm 2 m/s 756 mmHg 80%
    22:00 +23°C° 0 mm 2 m/s 756 mmHg 81%
    23:00 +22°C° 0 mm 1 m/s 756 mmHg 82%
    Mostrar mais